Regional Weather Roundup
Issued by NWS

Home | Current Version | Previous Version | Text Only | Print | Product List | Glossary On
Versions: 1 2 3 4 5 6 7 8 9 10 11 12 13 14 15 16 17 18 19 20 21 22 23 24 25 26 27
000
ASUS45 KBOU 230607
RWRCO

WEATHER ROUNDUP FOR COLORADO
NATIONAL WEATHER SERVICE DENVER/BOULDER CO
1200 AM MDT FRI JUN 23 2017

NOTE: "FAIR" INDICATES FEW OR NO CLOUDS BELOW 12000 FEET WITH NO
SIGNIFICANT WEATHER AND/OR OBSTRUCTIONS TO VISIBILITY.

COZ001>005-013-030-031-230700-
...NORTHWEST COLORADO...

CITY           SKY/WX    TMP DP  RH WIND       PRES   REMARKS
CRAIG          FAIR      61  28  28 SW12      30.12R
HAYDEN         FAIR      63  25  23 W8        30.13R
MEEKER         FAIR      56  49  77 MISG      30.14R
RABBIT EARS PA FAIR      48  27  43 W8        30.40R
STEAMBOAT SPGS FAIR      57  43  59 CALM      30.14R
WALDEN         FAIR      54  37  54 N6        30.23R
$$

COZ006>008-011-230700-
...WEST CENTRAL VALLEYS...

CITY           SKY/WX    TMP DP  RH WIND       PRES   REMARKS
GRAND JUNCTION FAIR      77  21  12 NW15      29.97R
MONTROSE       FAIR      71  36  27 SE7       30.03R
EAGLE          FAIR      62  40  44 E3        30.16R
RIFLE          FAIR      67  40  37 SE3       30.05R
DELTA          FAIR      74  37  25 N7        29.98R
NUCLA          FAIR      70  32  24 SE7       30.08R
$$

COZ017>023-064>068-230700-
...SOUTHWEST COLORADO...

CITY           SKY/WX    TMP DP  RH WIND       PRES   REMARKS
DURANGO        FAIR      64  27  24 N5        30.07R
CORTEZ         FAIR      61  35  37 NE7       30.04R
PAGOSA SPRINGS FAIR      68  18  14 CALM      30.17R
TELLURIDE      FAIR      63  29  27 SE6       30.33S
WOLF CREEK PAS MOCLDY    54  25  32 NW3       30.57F
$$

COZ009-010-012-014-032>034-037-058>063-230700-
...CENTRAL COLORADO...

CITY           SKY/WX    TMP DP  RH WIND       PRES   REMARKS
ASPEN          FAIR      53  38  56 S6        30.20R
BUENA VISTA    FAIR      62  34  34 E7        30.25R
COPPER MTN     FAIR      52  32  46 W14       30.51S
BERTHOUD PASS  FAIR      43  30  61 NW25G33   30.52R
COTTONWOOD PAS FAIR      59  32  36 E3        30.38R
GUNNISON       FAIR      57  37  47 NE3       30.19R
KREMMLING      NOT AVBL
LEADVILLE      FAIR      47  32  56 E3        30.36R
MONARCH PASS   FAIR      46  39  76 NE16      30.62F
SALIDA         FAIR      68  44  41 CALM      30.27R
SUNLIGHT       FAIR      52  30  43 N5        30.47R
WILKERSON PASS FAIR      50  30  46 SW3       30.50S
$$

COZ069>075-230700-
...SAN LUIS VALLEY/SANGRE DE CRISTO MOUNTAINS...

CITY           SKY/WX    TMP DP  RH WIND       PRES   REMARKS
ALAMOSA        FAIR      63  43  48 E8        30.15R
DEL NORTE      FAIR      64  28  26 SW7       30.20R
LA VETA PASS   FAIR      54  41  62 MISG      30.51S
SAGUACHE       FAIR      64  28  25 N10       30.19S
$$

COZ035-036-038>040-230700-
...NORTHERN COLORADO FRONT RANGE...

CITY           SKY/WX    TMP DP  RH WIND       PRES   REMARKS
DENVER INTL AP FAIR      63  53  70 E10       30.05R
DMNS CITY PARK   N/A     66  53  61 N10G16    30.05S
AURORA         PTCLDY    63  54  71 E12       30.06S
FRONT RANGE AP FAIR      63  55  77 E14       30.06F
ERIE MUNI ARPT FAIR      64  52  65 NE6       30.07R
BOULDER MUN AP FAIR      63  52  67 NE3       30.08R
CENTENNIAL     MOCLDY    66  51  58 SE10      30.06F
BROOMFIELD     FAIR      64  52  63 N10       30.11R
FORT COLLINS   MOCLDY    67  54  63 NE5       30.09R
LONGMONT       FAIR      65  55  69 N3        30.10R
$$

COZ041-046-047-076>085-087-088-230700-
...PIKES PEAK/PALMER DIVIDE AND SOUTHERN FOOTHILLS...

CITY           SKY/WX    TMP DP  RH WIND       PRES   REMARKS
COLO. SPRINGS  FAIR      62  51  67 N9        30.12R
A. F. ACADEMY  FAIR      60  49  68 CALM      30.13S
SCHRIEVER AFB  NOT AVBL
CHEYENNE MTN   NOT AVBL
ELLICOTT       FAIR     N/A N/A N/A E10       30.10R
FALCON           N/A     58  48  68 W7        30.17S
FORT CARSON    FAIR      66  51  57 W6        30.08S
LIMON          FAIR      63  55  75 E8        30.09R
MONUMENT HILL  FAIR      57  46  67 S7        30.17R
CANON CITY     CLEAR     68  57  68 N6        30.05S
WALSENBURG     FAIR      61  48  63 NW6       30.11F
TRINIDAD       FAIR      64  47  53 NW7       30.09S
$$

COZ042>045-048>051-090-091-230700-
...NORTHEAST COLORADO...

CITY           SKY/WX    TMP DP  RH WIND       PRES   REMARKS
GREELEY ARPT   NOT AVBL
AKRON          FAIR      63  52  67 E8        30.04R
BURLINGTON     FAIR      67  57  70 E13       30.02R
WRAY           FAIR      64  50  59 NE12      29.99R
YUMA           FAIR      63  46  55 E7        30.02R
STERLING       FAIR      66  54  63 E7        30.00R
HOLYOKE        NOT AVBL
FORT MORGAN    FAIR      62  53  72 E7        30.05R
$$

COZ086-089-092>099-230700-
...SOUTHEAST COLORADO...

CITY           SKY/WX    TMP DP  RH WIND       PRES   REMARKS
PUEBLO         FAIR      72  49  44 SE7       30.00R
LA JUNTA       FAIR      69  56  62 SE7       29.98F
LAMAR          LGT RAIN  72  55  55 W6        29.99R
SPRINGFIELD      N/A     66  55  67 W6        29.96F
$$




USA.gov is the U.S. government's official web portal to all federal, state and local government web resources and services.